Flag for Germany Weather past 2 weeks in Aalen, Baden-Württemberg, Germany

Now
84 °F

Passing clouds.


Feels Like: 83 °F
Forecast: 60 / 82 °F
Wind: 3 mph from Northwest

Location: Stoetten

Current Time: Aug 31, 2015 at 6:31:53 PM

Latest Report: Aug 31, 2015 at 6:00 PM


Visibility: 47 mi

Pressure: 29.81 "Hg

Humidity: 35%

Dew point: 54 °F

Location of AalenLocation

Historic Weather in Aalen — Graph

°F

Aalen temperature yesterday

Maximum temperature yesterday: 87 °F (at 5:00 PM)
Minimum temperature yesterday: 70 °F (at 4:00 AM)
Average temperature yesterday: 77 °F

Past Weeks' High & Low Weather Summary

 TemperatureHumidityPressure
High87 °F (Aug 30, 5:00 PM)100% (Aug 16, 6:00 PM)30.28 "Hg (Aug 16, 6:00 PM)
Low48 °F (Aug 18, 7:00 AM)32% (Aug 31, 3:00 PM)29.67 "Hg (Aug 24, 3:00 PM)
Average63 °F71%30.02 "Hg
* Reported Aug 16 5:00 PM — Aug 31 5:00 PM, Aalen, Weather by CustomWeather, © 2015

Note: Actual official high and low records may vary slightly from our data, if they occured in-between our weather recording intervals... More about our weather records

Advertising

Aalen weather history for previous 24 hours

 ConditionsComfort  
Time TempWeatherWind HumidityBarometerVisibility
5:00 PM
Mon, Aug 31
83 °FPassing clouds.2 mph37%29.83 "Hg47 mi
4:00 PM83 °FPassing clouds.3 mph36%29.84 "Hg43 mi
3:00 PM84 °FPassing clouds.2 mph32%29.87 "Hg43 mi
2:00 PM82 °FPassing clouds.3 mph34%29.89 "Hg47 mi
1:00 PM81 °FPassing clouds.5 mph35%29.90 "Hg47 mi
12:00 PM79 °FPassing clouds.6 mph39%29.93 "Hg47 mi
11:00 AM77 °FPassing clouds.6 mph44%29.95 "Hg47 mi
10:00 AM74 °FPassing clouds.6 mph55%29.96 "Hg47 mi
9:00 AM71 °FPassing clouds.6 mph63%29.97 "Hg43 mi
8:00 AM68 °FPassing clouds.3 mph69%29.98 "Hg43 mi
7:00 AM73 °FPassing clouds.3 mph58%29.96 "Hg43 mi
6:00 AM72 °FClear.3 mph58%29.97 "Hg43 mi
5:00 AM73 °FClear.2 mph56%29.96 "Hg40 mi
4:00 AM75 °FClear.3 mph52%29.95 "Hg43 mi
3:00 AM75 °FClear.3 mph52%29.96 "Hg43 mi
2:00 AM76 °FClear.3 mph50%29.98 "Hg43 mi
1:00 AM75 °FClear.3 mph53%29.99 "Hg19 mi
11:00 PM
Sun, Aug 30
75 °FClear.N/A55%30.01 "Hg37 mi
10:00 PM75 °FClear.N/A55%30.02 "Hg43 mi
9:00 PM78 °FPassing clouds.3 mph48%30.00 "Hg43 mi
8:00 PM80 °FPassing clouds.N/A47%29.98 "Hg43 mi
7:00 PM85 °FPassing clouds.3 mph41%29.96 "Hg43 mi
6:00 PM87 °FPassing clouds.3 mph33%29.95 "Hg43 mi
Weather by CustomWeather, © 2015

See weather overviewHow to use our weather pages